Weather History for Sheridan, WY

Change the Weather History Date:

Wednesday, April 17, 2013

  Actual Average Record
Temperature  
Mean Temperature 25 °F 44 °F  
Max Temperature 31 °F 58 °F 83 °F (1994)
Min Temperature 19 °F 30 °F 15 °F (1922)
Degree Days  
Heating Degree Days 40 21  
Month to date heating degree days 488 393  
Since 1 July heating degree days 6767 6852  
Cooling Degree Days 0 0  
Month to date cooling degree days 0 0  
Year to date cooling degree days 0 0  
Moisture  
Dew Point 18 °F    
Average Humidity 75    
Maximum Humidity 92    
Minimum Humidity 58    
Precipitation  
Precipitation 0.03 in 0.05 in 1.20 in (1920)
Month to date precipitation 0.99 0.76  
Year to date precipitation 3.01 2.84  
Sea Level Pressure  
Sea Level Pressure 30.29 in    
Wind  
Wind Speed 10 mph (NW)    
Max Wind Speed 20 mph    
Max Gust Speed 23 mph    
Visibility 7 miles    
Events Snow    
T = Trace of Precipitation, MM = Missing Value Source: NWS Daily Summary

Daily Weather History Graph

Daily Weather History Graph

Search for Another Location

Airport:

Trip Planner

Search our weather history database for the weather conditions in past years. The results will help you decide how hot, cold, wet, or windy it might be!

Date:

Astronomy

Apr. 17, 2013 Rise Set
Actual Time 6:19 AM MDT 7:55 PM MDT
Civil Twilight 5:48 AM MDT 8:26 PM MDT
Nautical Twilight 5:11 AM MDT 9:04 PM MDT
Astronomical Twilight 4:31 AM MDT 9:44 PM MDT
Moon 11:31 AM MDT (4/17) 1:40 AM MDT (4/17)
Length of Visible Light 14h 37m
Length of Day
13h 36m
Waxing Crescent, 43% of the Moon is Illuminated
Apr 17
Waxing Crescent
Apr 18
First Quarter
Apr 25
Full
May 2
Last Quarter
May 9
New

Hourly Weather History & Observations

Time (MDT) Temp. Windchill Dew Point Humidity Pressure Visibility Wind Dir Wind Speed Gust Speed Precip Events Conditions
12:33 AM 21.2 °F 12.6 °F 19.4 °F 93% 30.21 in 4.0 mi NNW 6.9 mph - 0.00 in Snow Light Snow
12:53 AM 21.9 °F 14.5 °F 19.9 °F 92% 30.36 in 5.0 mi NNW 5.8 mph - 0.00 in Snow Light Snow
1:36 AM 21.2 °F 13.6 °F 19.4 °F 93% 30.21 in 2.0 mi NNW 5.8 mph - 0.01 in Snow Light Snow
1:44 AM 21.2 °F 12.6 °F 19.4 °F 93% 30.21 in 1.5 mi NNW 6.9 mph - 0.01 in Snow Light Snow
1:53 AM 21.0 °F 12.4 °F 19.0 °F 92% 30.35 in 2.0 mi NNW 6.9 mph - 0.01 in Snow Light Snow
2:11 AM 21.2 °F 11.7 °F 19.4 °F 93% 30.20 in 3.0 mi NNW 8.1 mph - 0.00 in Snow Light Snow
2:48 AM 19.4 °F 11.5 °F 17.6 °F 93% 30.20 in 7.0 mi NNW 5.8 mph - 0.01 in Snow Light Snow
2:53 AM 19.9 °F 12.1 °F 17.1 °F 89% 30.34 in 7.0 mi NNW 5.8 mph - 0.01 in Snow Light Snow
3:05 AM 21.2 °F 16.4 °F 19.4 °F 93% 30.20 in 8.0 mi NW 3.5 mph - 0.00 in Snow Light Snow
3:48 AM 21.2 °F - 17.6 °F 86% 30.20 in 10.0 mi Calm Calm - 0.00 in   Overcast
3:53 AM 21.0 °F 16.2 °F 18.0 °F 88% 30.35 in 10.0 mi West 3.5 mph - 0.00 in   Overcast
4:03 AM 21.2 °F 16.4 °F 17.6 °F 86% 30.20 in 9.0 mi WNW 3.5 mph - N/A   Overcast
4:18 AM 19.4 °F 11.5 °F 17.6 °F 93% 30.20 in 2.5 mi WNW 5.8 mph - 0.00 in Snow Light Snow
4:35 AM 19.4 °F 10.4 °F 15.8 °F 86% 30.20 in 4.0 mi WNW 6.9 mph - 0.00 in Snow Light Snow
4:53 AM 19.0 °F 11.1 °F 16.0 °F 88% 30.35 in 5.0 mi West 5.8 mph - 0.00 in Snow Light Snow
5:53 AM 19.9 °F 10.1 °F 16.0 °F 85% 30.35 in 2.5 mi WNW 8.1 mph - 0.00 in Snow Light Snow
5:59 AM 19.4 °F 9.5 °F 15.8 °F 86% 30.19 in 3.0 mi West 8.1 mph - 0.00 in Snow Light Snow
6:53 AM 19.0 °F 8.2 °F 16.0 °F 88% 30.35 in 1.8 mi WNW 9.2 mph - 0.00 in Snow Light Snow
7:04 AM 19.4 °F 7.9 °F 15.8 °F 86% 30.20 in 1.0 mi West 10.4 mph - 0.01 in Snow Light Snow
7:28 AM 19.4 °F 6.6 °F 15.8 °F 86% 30.21 in 3.0 mi WNW 12.7 mph - 0.01 in Snow Light Snow
7:53 AM 19.4 °F 8.6 °F 15.8 °F 86% 30.22 in 3.0 mi WNW 9.2 mph - N/A Snow Light Snow
8:31 AM 21.2 °F 9.5 °F 17.6 °F 86% 30.22 in 2.5 mi NNW 11.5 mph - 0.00 in Snow Light Snow
8:46 AM 21.2 °F 10.1 °F 17.6 °F 86% 30.22 in 4.0 mi NNW 10.4 mph - 0.00 in   Overcast
8:53 AM 21.9 °F 11.0 °F 17.1 °F 82% 30.38 in 5.0 mi NNW 10.4 mph - 0.00 in   Haze
9:28 AM 21.2 °F 10.1 °F 17.6 °F 86% 30.23 in 10.0 mi NNW 10.4 mph - N/A   Overcast
9:53 AM 23.0 °F 11.1 °F 17.1 °F 78% 30.37 in 10.0 mi NNW 12.7 mph - N/A   Overcast
10:07 AM 24.8 °F 12.9 °F 17.6 °F 74% 30.22 in 10.0 mi NNW 13.8 mph - N/A   Overcast
10:44 AM 24.8 °F 13.4 °F 17.6 °F 74% 30.22 in 10.0 mi NNW 12.7 mph - N/A   Overcast
10:53 AM 25.0 °F 13.1 °F 17.1 °F 72% 30.37 in 10.0 mi NNW 13.8 mph - N/A   Overcast
11:53 AM 28.0 °F 17.5 °F 19.0 °F 69% 30.36 in 10.0 mi NNW 12.7 mph - N/A   Overcast
12:53 PM 28.0 °F 16.5 °F 19.0 °F 69% 30.35 in 10.0 mi NNW 15.0 mph - 0.00 in   Overcast
1:53 PM 28.0 °F 16.5 °F 19.0 °F 69% 30.35 in 7.0 mi NW 15.0 mph - 0.00 in Snow Light Snow
2:02 PM 26.6 °F 14.7 °F 21.2 °F 80% 30.21 in 2.5 mi NNW 15.0 mph - 0.00 in Snow Light Snow
2:53 PM 30.0 °F 19.5 °F 21.9 °F 72% 30.35 in 9.0 mi NNW 13.8 mph - 0.00 in   Mostly Cloudy
3:53 PM 28.9 °F 17.7 °F 19.9 °F 69% 30.34 in 10.0 mi NW 15.0 mph - N/A   Scattered Clouds
4:53 PM 30.0 °F 18.7 °F 17.1 °F 59% 30.35 in 10.0 mi NNW 16.1 mph - N/A   Clear
5:53 PM 30.9 °F 20.7 °F 21.0 °F 67% 30.35 in 10.0 mi NNW 13.8 mph - 0.00 in   Scattered Clouds
6:53 PM 28.9 °F 18.6 °F 18.0 °F 64% 30.36 in 10.0 mi NW 12.7 mph - N/A   Clear
7:53 PM 26.1 °F 13.1 °F 19.9 °F 78% 30.38 in 10.0 mi NW 17.3 mph - N/A   Overcast
8:12 PM 26.6 °F 15.7 °F 19.4 °F 74% 30.23 in 5.0 mi NW 12.7 mph - 0.00 in Snow Light Snow
8:19 PM 26.6 °F 16.2 °F 19.4 °F 74% 30.23 in 9.0 mi NW 11.5 mph - 0.00 in   Overcast
8:32 PM 24.8 °F 14.0 °F 19.4 °F 80% 30.23 in 10.0 mi NW 11.5 mph - 0.00 in   Overcast
8:40 PM 24.8 °F 14.6 °F 19.4 °F 80% 30.23 in 10.0 mi NNW 10.4 mph - 0.00 in   Mostly Cloudy
8:53 PM 24.1 °F 15.2 °F 19.0 °F 81% 30.39 in 10.0 mi NNW 8.1 mph - 0.00 in   Scattered Clouds
9:53 PM 21.9 °F 11.7 °F 19.0 °F 89% 30.40 in 10.0 mi West 9.2 mph - N/A   Partly Cloudy
10:53 PM 21.9 °F 14.5 °F 19.0 °F 89% 30.37 in 10.0 mi West 5.8 mph - N/A   Overcast
11:53 PM 21.9 °F 12.5 °F 16.0 °F 78% 30.35 in 10.0 mi WNW 8.1 mph - N/A   Overcast